Bryce Canyon, UT

1:44 PM MDT on October 22, 2017 (GMT -0600)
Bryce Canyon

Weather History for KBCE - November, 2012

Change the Weather History Date:

Friday, November 2, 2012

  Actual Average Record
Temperature  
Mean Temperature 40 °F -  
Max Temperature 57 °F 48 °F 64 °F (1962)
Min Temperature 24 °F 22 °F 7 °F (2011)
Degree Days  
Heating Degree Days 24    
Moisture  
Dew Point 12 °F    
Average Humidity 41    
Maximum Humidity 63    
Minimum Humidity 12    
Precipitation  
Precipitation 0.00 in - - ()
Sea Level Pressure  
Sea Level Pressure 30.03 in    
Wind  
Wind Speed 4 mph (WSW)    
Max Wind Speed 9 mph    
Max Gust Speed -    
Visibility 10 miles    
Events      
Averages and records for this station are not official NWS values.
T = Trace of Precipitation, MM = Missing Value Source: NWS Daily Summary

Daily Weather History Graph

Daily Weather History Graph

Search for Another Location

Airport or City:

Trip Planner

Search our weather history database for the weather conditions in past years. The results will help you decide how hot, cold, wet, or windy it might be!

Date:

Astronomy

Nov. 02, 2012 Rise Set
Actual Time 7:55 AM MDT 6:28 PM MDT
Civil Twilight 7:28 AM MDT 6:55 PM MDT
Nautical Twilight 6:57 AM MDT 7:26 PM MDT
Astronomical Twilight 6:26 AM MDT 7:57 PM MDT
Moon 9:21 PM MDT (11/2) 11:16 AM MDT (11/2)
Length of Visible Light 11h 27m
Length of Day
10h 32m
Waning Gibbous, 87% of the Moon is Illuminated
Nov 2
Waning Gibbous
Nov 6
Last Quarter
Nov 13
New
Nov 20
First Quarter
Nov 28
Full

Hourly Weather History & Observations

Time (MDT) Temp. Windchill Dew Point Humidity Pressure Visibility Wind Dir Wind Speed Gust Speed Precip Events Conditions
12:53 AM 27.0 °F 21.6 °F 12.9 °F 56% 30.00 in 10.0 mi WSW 4.6 mph - N/A   Clear
1:53 AM 24.1 °F - 12.9 °F 62% 30.00 in 10.0 mi Calm Calm - N/A   Clear
2:53 AM 25.0 °F 19.3 °F 14.0 °F 63% 30.00 in 10.0 mi West 4.6 mph - N/A   Clear
3:53 AM 27.0 °F 23.0 °F 15.1 °F 61% 30.00 in 10.0 mi West 3.5 mph - N/A   Clear
4:53 AM 27.0 °F 20.5 °F 15.1 °F 61% 29.99 in 10.0 mi WSW 5.8 mph - N/A   Clear
5:53 AM 26.1 °F - 15.1 °F 63% 30.01 in 10.0 mi Calm Calm - N/A   Clear
6:53 AM 26.1 °F 18.4 °F 14.0 °F 60% 30.06 in 10.0 mi West 6.9 mph - N/A   Clear
7:53 AM 26.1 °F 20.5 °F 14.0 °F 60% 30.11 in 10.0 mi West 4.6 mph - N/A   Clear
8:53 AM 30.0 °F 23.2 °F 14.0 °F 51% 30.11 in 10.0 mi West 6.9 mph - N/A   Clear
9:53 AM 43.0 °F 38.8 °F 15.1 °F 32% 30.07 in 10.0 mi West 6.9 mph - N/A   Clear
10:53 AM 48.9 °F - 16.0 °F 27% 30.05 in 10.0 mi NE 3.5 mph - N/A   Clear
11:53 AM 52.0 °F - 14.0 °F 22% 30.04 in 10.0 mi WSW 3.5 mph - N/A   Clear
12:53 PM 55.0 °F - 10.9 °F 17% 30.02 in 10.0 mi Variable 5.8 mph - N/A   Clear
1:53 PM 57.0 °F - 5.0 °F 12% 30.00 in 10.0 mi West 9.2 mph - N/A   Clear
2:53 PM 57.9 °F - 7.0 °F 13% 29.97 in 10.0 mi WSW 6.9 mph - N/A   Clear
3:53 PM 57.0 °F - 3.9 °F 12% 29.96 in 10.0 mi Calm Calm - N/A   Clear
4:53 PM 57.0 °F - 12.0 °F 17% 29.96 in 10.0 mi SE 6.9 mph - N/A   Clear
5:53 PM 54.0 °F - 12.9 °F 20% 29.98 in 10.0 mi SSE 8.1 mph - N/A   Clear
6:53 PM 41.0 °F 37.1 °F 10.0 °F 28% 30.05 in 10.0 mi SSE 5.8 mph - N/A   Clear
7:53 PM 39.0 °F 34.8 °F 10.0 °F 30% 30.09 in 10.0 mi WSW 5.8 mph - N/A   Clear
8:53 PM 36.0 °F - 14.0 °F 41% 30.10 in 10.0 mi Calm Calm - N/A   Clear
9:53 PM 30.0 °F 25.2 °F 14.0 °F 51% 30.08 in 10.0 mi WNW 4.6 mph - N/A   Clear
10:53 PM 27.0 °F - 12.9 °F 56% 30.09 in 10.0 mi Calm Calm - N/A   Clear
11:53 PM 27.0 °F 20.5 °F 14.0 °F 58% 30.08 in 10.0 mi West 5.8 mph - N/A   Clear